Regional Weather Roundup
Issued by NWS Newport/Morehead, NC

Current Version | Previous Version | Graphics & Text | Print | Product List | Glossary Off
Versions: 1 2 3 4 5 6 7 8 9 10 11 12 13 14 15 16 17 18 19 20 21 22 23 24 25 26 27 28 29 30 31 32 33 34 35 36 37 38 39 40 41 42 43 44 45 46 47 48 49 50

000
ASUS42 KMHX 271325
RWRMHX
WEATHER ROUNDUP FOR EASTERN NORTH CAROLINA
NATIONAL WEATHER SERVICE NEWPORT/MOREHEAD CITY NC
900 AM EDT TUE SEP 27 2016

NOTE: "FAIR" INDICATES FEW OR NO CLOUDS BELOW 12,000 FEET
WITH NO SIGNIFICANT WEATHER AND/OR OBSTRUCTIONS TO VISIBILITY

NCZ015>017-031-032-045>047-102-103-271400-
NORTH COAST

CITY           SKY/WX    TMP DP  RH WIND       PRES   REMARKS
EDENTON        CLOUDY    76  68  74 CALM      29.99R
ELIZABETH CITY CLOUDY    74  68  81 CALM      29.98R
KITTY HAWK     CLOUDY    77  72  84 S3        29.97S
MANTEO         CLOUDY    76  70  81 SW7       29.99R

$$

NCZ045>047-081-094-103-104-271400-
CENTRAL COAST

CITY           SKY/WX    TMP DP  RH WIND       PRES   REMARKS
FRISCO         CLOUDY    78  67  68 S7        29.98S

$$

NCZ095-097-098-100-101-271400-
SOUTHERN COAST

CITY           SKY/WX    TMP DP  RH WIND       PRES   REMARKS
BEAUFORT       LGT RAIN  74  72  93 E3        29.96F
CEDAR ISLAND   NOT AVBL
JACKSONVILLE   NOT AVBL
PINEY ISLAND   CLOUDY   N/A N/A N/A SE6       29.97S
WILMINGTON     MOSUNNY   73  69  87 E5        29.95S


$$

NCZ011>013-027>030-043-044-078>080-089-090>093-098-271400-
COASTAL PLAIN

CITY           SKY/WX    TMP DP  RH WIND       PRES   REMARKS
AHOSKIE        CLOUDY    69  67  95 CALM      29.98F
CLINTON        CLOUDY    72  70  94 CALM      29.98S
ELIZABETHTOWN  CLOUDY    71  71  98 CALM      29.97R
GOLDSBORO      CLOUDY    72  72 100 NW6       29.97R
GREENVILLE     CLOUDY    70  70 100 CALM      30.01R
HAVELOCK       CLOUDY    75  68  78 CALM      29.98S
KENANSVILLE    MOSUNNY   72  68  88 CALM      29.97S
KINSTON        PTSUNNY   72  70  94 CALM      29.99R
NEW BERN       CLOUDY    75  71  87 CALM      29.98S
RICHLANDS      CLOUDY    71  69  93 CALM      29.97S
ROCKY MOUNT    CLOUDY    71  69  93 CALM      29.98S
WASHINGTON     CLOUDY    73  67  82 CALM      29.98S
WHITEVILLE     NOT AVBL

$$

AMZ130-135-150-152-154-156-158-170-250-252-270-ANZ085-086-088-633-658-670-271400-
MARINE OBSERVATIONS

STATION/POSITION TIME  TEMP    WIND        PRES    WAVE   SWELL
                       AIR SEA DIR/SP/G            HT/PER HT/PER
                 (UTC) (F)     (DEG/KT/KT) (MB)    (FT/S) (FT/S)
CHESAPEAKE LIGHT NOT AVBL
64 E VA BEACH    1250   75 74  190/ 10/ 12 1015.2    3/ 6   3/ 6
DUCK             1300   76 76  180/  9/ 11 1014.8
2 E DUCK         1241      76                N/A     3/13   2/13
OREGON INLET     1300   76 76  150/  5/  7 1015.1
13E OREGON INLT  1300      76                N/A     3/13   3/13
HATTERAS CG      1300   78 78  200/  3/  6 1015.0
DIAMOND BUOY     1250   78 84  180/ 10/ 12 1015.2    3/ 6   3/ 6
CAPE LOOKOUT     1300   78     130/ 13/ 14 1014.3
BEAUFORT LAB     1300   75 76   80/  3/  4 1014.0
30 SE NEW RVR IN 1308   79 82  150/ 12/ 16 1014.2
30 SE NEW RVR IN 1255      82                N/A     4/ 6   2/13
27 SE WRIGHTSVLE 1308   78 81  140/ 10/ 14 1014.1
5 SE WRIGHTSVLE  1308   80 80   90/  6/  8 1015.0
225 S CAPE HAT   1250   78 83  170/ 16/ 19 1014.0    6/ 6   2/ 9
41 SE CHARLESTON 1250   75 82  110/  4/  6 1013.8    4/ 8   3/ 8

$$




USA.gov is the U.S. government's official web portal to all federal, state and local government web resources and services.